Weather History for KLHW - August, 2013

Change the Weather History Date:

Saturday, August 10, 2013

  Actual Average Record
Temperature  
Mean Temperature 82 °F -  
Max Temperature 92 °F 91 °F 101 °F (1987)
Min Temperature 72 °F 71 °F 62 °F (2000)
Cooling Degree Days 16    
Growing Degree Days 32 (Base 50)    
Moisture  
Dew Point 77 °F    
Average Humidity 85    
Maximum Humidity 100    
Minimum Humidity 62    
Precipitation  
Precipitation 0.00 in - - ()
Sea Level Pressure  
Sea Level Pressure 30.12 in    
Wind  
Wind Speed 2 mph (South)    
Max Wind Speed 10 mph    
Max Gust Speed -    
Visibility 10 miles    
Events      
Averages and records for this station are not official NWS values.
T = Trace of Precipitation, MM = Missing Value Source: NWS Daily Summary

Daily Weather History Graph

Daily Weather History Graph

Search for Another Location

Airport or City:

Trip Planner

Search our weather history database for the weather conditions in past years. The results will help you decide how hot, cold, wet, or windy it might be!

Date:

Astronomy

Aug. 10, 2013 Rise Set
Actual Time 6:47 AM EDT 8:14 PM EDT
Civil Twilight 6:21 AM EDT 8:40 PM EDT
Nautical Twilight 5:50 AM EDT 9:11 PM EDT
Astronomical Twilight 5:18 AM EDT 9:44 PM EDT
Moon 10:15 AM EDT (8/10) 10:14 PM EDT (8/10)
Length of Visible Light 14h 18m
Length of Day
13h 26m
Waxing Crescent, 14% of the Moon is Illuminated
Aug 10
Waxing Crescent
Aug 14
First Quarter
Aug 20
Full
Aug 28
Last Quarter
Sep 5
New

Hourly Weather History & Observations

Time (EDT) Temp. Heat Index Dew Point Humidity Pressure Visibility Wind Dir Wind Speed Gust Speed Precip Events Conditions
12:58 AM 75.2 °F - 75.2 °F 100% 30.10 in 10.0 mi Calm Calm - N/A   Clear
1:58 AM 75.2 °F - 75.2 °F 100% 30.11 in 10.0 mi Calm Calm - N/A   Clear
2:58 AM 74.7 °F - 74.7 °F 100% 30.10 in 10.0 mi Calm Calm - N/A   Clear
3:58 AM 74.1 °F - 74.1 °F 100% 30.10 in 10.0 mi Calm Calm - N/A   Clear
4:58 AM 74.3 °F - 74.3 °F 100% 30.09 in 10.0 mi SW 1.2 mph - N/A   Clear
5:58 AM 73.0 °F - 73.0 °F 100% 30.10 in 10.0 mi Calm Calm - N/A   Clear
6:58 AM 72.5 °F - 72.5 °F 100% 30.12 in 10.0 mi Calm Calm - N/A   Clear
7:58 AM 74.7 °F - 74.7 °F 100% 30.13 in 10.0 mi Calm Calm - N/A   Clear
8:58 AM 79.7 °F - 79.7 °F 100% 30.14 in 10.0 mi Calm Calm - N/A   Clear
9:58 AM 83.7 °F 96.5 °F 80.1 °F 89% 30.14 in 10.0 mi South 5.8 mph - N/A   Clear
10:23 AM 84.2 °F 96.1 °F 78.8 °F 84% 30.13 in 10.0 mi Variable 4.6 mph - N/A   Mostly Cloudy
10:28 AM 84.2 °F 96.1 °F 78.8 °F 84% 30.14 in 10.0 mi South 4.6 mph - N/A   Mostly Cloudy
10:38 AM 84.2 °F 96.1 °F 78.8 °F 84% 30.14 in 10.0 mi Variable 3.5 mph - N/A   Scattered Clouds
10:43 AM 86.0 °F 99.3 °F 78.8 °F 79% 30.14 in 10.0 mi South 5.8 mph - N/A   Mostly Cloudy
10:48 AM 86.0 °F 99.3 °F 78.8 °F 79% 30.14 in 10.0 mi Variable 1.2 mph - N/A   Scattered Clouds
10:58 AM 85.8 °F 98.3 °F 78.3 °F 78% 30.15 in 10.0 mi SSW 5.8 mph - N/A   Partly Cloudy
11:58 AM 88.2 °F 101.8 °F 78.1 °F 72% 30.15 in 10.0 mi South 3.5 mph - N/A   Scattered Clouds
12:58 PM 88.2 °F 100.7 °F 77.2 °F 70% 30.15 in 10.0 mi Calm Calm - N/A   Mostly Cloudy
1:58 PM 90.1 °F 103.0 °F 77.0 °F 65% 30.13 in 10.0 mi Variable 2.3 mph - N/A   Scattered Clouds
2:58 PM 90.7 °F 103.8 °F 77.2 °F 64% 30.11 in 10.0 mi SSW 4.6 mph - N/A   Scattered Clouds
3:58 PM 91.0 °F 104.2 °F 76.8 °F 63% 30.09 in 10.0 mi Variable 3.5 mph - N/A   Scattered Clouds
4:58 PM 90.9 °F 103.0 °F 76.3 °F 62% 30.09 in 10.0 mi SSE 6.9 mph - N/A   Scattered Clouds
5:58 PM 91.6 °F 105.6 °F 77.4 °F 63% 30.08 in 10.0 mi SE 10.4 mph - N/A   Partly Cloudy
6:58 PM 87.6 °F 99.7 °F 77.2 °F 71% 30.08 in 10.0 mi SE 5.8 mph - N/A   Clear
7:58 PM 85.6 °F 96.8 °F 77.2 °F 76% 30.10 in 10.0 mi SSE 4.6 mph - N/A   Clear
8:58 PM 82.4 °F 91.5 °F 77.7 °F 86% 30.10 in 10.0 mi SSE 4.6 mph - N/A   Clear
9:58 PM 80.4 °F 87.2 °F 77.9 °F 92% 30.13 in 10.0 mi SSE 3.5 mph - N/A   Clear
10:58 PM 79.5 °F - 78.3 °F 96% 30.14 in 10.0 mi South 2.3 mph - N/A   Clear
11:58 PM 78.3 °F - 78.1 °F 99% 30.14 in 10.0 mi South 1.2 mph - N/A   Clear